N2235 KEYW-KMTH

Flight info

Callsign N2235
Flight time 0h 28m
Altitude 3500
Route VFR
Aircraft C172/L-VGD/A

Departure

Time 2026-05-05 21:05
Airport Key West International Airport (KEYW)

Arrival

Time 2026-05-05 21:33
Airport Florida Keys Marathon International Airport (KMTH)
Time Latitude Longitude Altitude Speed Heading
2026-05-05 20:57 24.55484 -81.76189 8 ft 0 kts 343°
2026-05-05 21:00 24.55508 -81.76197 8 ft 10 kts 343°
2026-05-05 21:00 24.55533 -81.76204 8 ft 4 kts
2026-05-05 21:01 24.55526 -81.76106 1 ft 23 kts 88°
2026-05-05 21:01 24.55528 -81.75879 13 ft 34 kts 93°
2026-05-05 21:01 24.55529 -81.75645 15 ft 19 kts 88°
2026-05-05 21:01 24.55530 -81.75536 15 ft 19 kts 89°
2026-05-05 21:02 24.55531 -81.75368 16 ft 14 kts 89°
2026-05-05 21:02 24.55535 -81.75276 16 ft 7 kts 68°
2026-05-05 21:02 24.55545 -81.75261 15 ft 0 kts 36°
2026-05-05 21:02 24.55546 -81.75261 15 ft 0 kts 36°
2026-05-05 21:03 24.55565 -81.75254 15 ft 9 kts
2026-05-05 21:03 24.55618 -81.75298 14 ft 13 kts 269°
2026-05-05 21:03 24.55618 -81.75323 14 ft 14 kts 271°
2026-05-05 21:04 24.55616 -81.75617 16 ft 61 kts 270°
2026-05-05 21:04 24.55605 -81.76174 72 ft 84 kts 272°
2026-05-05 21:04 24.55582 -81.76849 238 ft 90 kts 273°
2026-05-05 21:04 24.55563 -81.77536 463 ft 88 kts 273°
2026-05-05 21:05 24.55515 -81.78212 679 ft 91 kts 254°
2026-05-05 21:05 24.55014 -81.78604 907 ft 99 kts 181°
2026-05-05 21:05 24.54348 -81.78324 1070 ft 106 kts 154°
2026-05-05 21:05 24.53688 -81.77970 1240 ft 107 kts 155°
2026-05-05 21:06 24.53070 -81.77497 1388 ft 110 kts 121°
2026-05-05 21:06 24.52982 -81.76703 1519 ft 110 kts 69°
2026-05-05 21:06 24.53246 -81.75888 1593 ft 114 kts 66°
2026-05-05 21:06 24.53549 -81.75067 1678 ft 116 kts 67°
2026-05-05 21:07 24.53885 -81.74257 1770 ft 116 kts 59°
2026-05-05 21:07 24.54265 -81.73478 1862 ft 115 kts 60°
2026-05-05 21:07 24.54639 -81.72699 1961 ft 116 kts 60°
2026-05-05 21:07 24.55010 -81.71913 2059 ft 116 kts 60°
2026-05-05 21:08 24.55383 -81.71130 2154 ft 115 kts 60°
2026-05-05 21:08 24.55751 -81.70355 2259 ft 117 kts 59°
2026-05-05 21:08 24.56134 -81.69544 2359 ft 122 kts 59°
2026-05-05 21:08 24.56528 -81.68721 2452 ft 121 kts 60°
2026-05-05 21:09 24.56918 -81.67904 2553 ft 121 kts 59°
2026-05-05 21:09 24.57407 -81.67165 2639 ft 119 kts 46°
2026-05-05 21:09 24.57747 -81.66358 2736 ft 119 kts 71°
2026-05-05 21:09 24.57995 -81.65487 2844 ft 120 kts 72°
2026-05-05 21:10 24.58227 -81.64589 2951 ft 123 kts 73°
2026-05-05 21:10 24.58454 -81.63693 3042 ft 122 kts 73°
2026-05-05 21:10 24.58673 -81.62800 3130 ft 120 kts 73°
2026-05-05 21:10 24.58890 -81.61923 3226 ft 118 kts 73°
2026-05-05 21:11 24.59104 -81.61054 3320 ft 118 kts 73°
2026-05-05 21:11 24.59316 -81.60177 3421 ft 119 kts 73°
2026-05-05 21:11 24.59535 -81.59301 3508 ft 119 kts 73°
2026-05-05 21:11 24.59754 -81.58406 3516 ft 124 kts 73°
2026-05-05 21:12 24.59982 -81.57477 3523 ft 128 kts 73°
2026-05-05 21:12 24.60215 -81.56523 3525 ft 130 kts 73°
2026-05-05 21:12 24.60450 -81.55562 3524 ft 130 kts 73°
2026-05-05 21:12 24.60684 -81.54610 3523 ft 130 kts 73°
2026-05-05 21:13 24.60920 -81.53647 3522 ft 131 kts 73°
2026-05-05 21:13 24.61158 -81.52673 3521 ft 130 kts 73°
2026-05-05 21:13 24.61390 -81.51727 3521 ft 130 kts 73°
2026-05-05 21:13 24.61624 -81.50768 3518 ft 129 kts 73°
2026-05-05 21:14 24.61858 -81.49812 3520 ft 130 kts 73°
2026-05-05 21:14 24.62092 -81.48853 3521 ft 130 kts 73°
2026-05-05 21:14 24.62249 -81.48217 3520 ft 130 kts 73°
2026-05-05 21:14 24.62482 -81.47259 3520 ft 130 kts 73°
2026-05-05 21:15 24.62717 -81.46299 3519 ft 130 kts 73°
2026-05-05 21:15 24.62950 -81.45343 3515 ft 127 kts 73°
2026-05-05 21:15 24.63173 -81.44427 3506 ft 122 kts 73°
2026-05-05 21:15 24.63390 -81.43539 3505 ft 119 kts 72°
2026-05-05 21:16 24.63603 -81.42667 3501 ft 117 kts 73°
2026-05-05 21:16 24.63811 -81.41818 3505 ft 116 kts 72°
2026-05-05 21:16 24.64019 -81.40963 3502 ft 116 kts 73°
2026-05-05 21:16 24.64228 -81.40110 3505 ft 115 kts 73°
2026-05-05 21:17 24.64435 -81.39260 3502 ft 115 kts 73°
2026-05-05 21:17 24.64640 -81.38417 3506 ft 114 kts 73°
2026-05-05 21:17 24.64846 -81.37575 3505 ft 114 kts 73°
2026-05-05 21:17 24.65051 -81.36735 3506 ft 114 kts 73°
2026-05-05 21:18 24.65256 -81.35896 3505 ft 114 kts 73°
2026-05-05 21:18 24.65461 -81.35052 3506 ft 114 kts 73°
2026-05-05 21:18 24.65666 -81.34211 3508 ft 114 kts 73°
2026-05-05 21:18 24.65872 -81.33355 3508 ft 116 kts 73°
2026-05-05 21:19 24.66082 -81.32500 3510 ft 116 kts 73°
2026-05-05 21:19 24.66289 -81.31647 3511 ft 115 kts 73°
2026-05-05 21:19 24.66495 -81.30806 3515 ft 116 kts 73°
2026-05-05 21:19 24.66703 -81.29944 3513 ft 117 kts 73°
2026-05-05 21:20 24.66912 -81.29083 3509 ft 116 kts 73°
2026-05-05 21:20 24.67120 -81.28228 3508 ft 116 kts 72°
2026-05-05 21:20 24.67329 -81.27372 3508 ft 116 kts 72°
2026-05-05 21:20 24.67536 -81.26517 3507 ft 116 kts 72°
2026-05-05 21:21 24.67742 -81.25668 3509 ft 115 kts 72°
2026-05-05 21:21 24.67949 -81.24814 3509 ft 116 kts 72°
2026-05-05 21:21 24.68156 -81.23960 3509 ft 116 kts 72°
2026-05-05 21:21 24.68365 -81.23105 3508 ft 116 kts 72°
2026-05-05 21:22 24.68572 -81.22249 3507 ft 116 kts 72°
2026-05-05 21:22 24.68787 -81.21362 3395 ft 123 kts 72°
2026-05-05 21:22 24.69011 -81.20437 3286 ft 127 kts 73°
2026-05-05 21:22 24.69239 -81.19492 3167 ft 128 kts 73°
2026-05-05 21:23 24.69467 -81.18554 3046 ft 129 kts 73°
2026-05-05 21:23 24.69697 -81.17603 2926 ft 129 kts 73°
2026-05-05 21:23 24.69927 -81.16652 2801 ft 128 kts 73°
2026-05-05 21:23 24.70157 -81.15703 2672 ft 129 kts 73°
2026-05-05 21:24 24.70395 -81.14746 2500 ft 130 kts 73°
2026-05-05 21:24 24.70630 -81.13780 2313 ft 132 kts 74°
2026-05-05 21:24 24.70908 -81.12831 2144 ft 131 kts 64°
2026-05-05 21:24 24.71290 -81.11920 1914 ft 129 kts 65°
2026-05-05 21:25 24.71646 -81.11044 1740 ft 124 kts 63°
2026-05-05 21:25 24.72004 -81.10188 1549 ft 123 kts 65°
2026-05-05 21:25 24.72350 -81.09327 1352 ft 123 kts 65°
2026-05-05 21:25 24.72670 -81.08460 1187 ft 121 kts 67°
2026-05-05 21:26 24.72944 -81.07619 1121 ft 116 kts 74°
2026-05-05 21:26 24.73058 -81.06745 1018 ft 114 kts 92°
2026-05-05 21:26 24.72798 -81.05950 1028 ft 109 kts 124°
2026-05-05 21:26 24.72269 -81.05383 1054 ft 108 kts 142°
2026-05-05 21:27 24.71631 -81.04958 1059 ft 106 kts 153°
2026-05-05 21:27 24.70961 -81.04611 1046 ft 106 kts 155°
2026-05-05 21:27 24.70284 -81.04276 1043 ft 106 kts 155°
2026-05-05 21:27 24.69602 -81.03997 1083 ft 102 kts 177°
2026-05-05 21:28 24.69010 -81.04314 1165 ft 98 kts 239°
2026-05-05 21:28 24.68812 -81.05047 1111 ft 108 kts 259°
2026-05-05 21:28 24.68863 -81.05828 1166 ft 100 kts 310°
2026-05-05 21:28 24.69508 -81.05994 1091 ft 107 kts 17°
2026-05-05 21:29 24.70151 -81.05569 1079 ft 109 kts 43°
2026-05-05 21:29 24.70566 -81.04880 1074 ft 112 kts 70°
2026-05-05 21:29 24.70765 -81.04036 1043 ft 114 kts 76°
2026-05-05 21:29 24.70946 -81.03180 1024 ft 113 kts 76°
2026-05-05 21:30 24.71142 -81.02360 1058 ft 110 kts 72°
2026-05-05 21:30 24.71369 -81.01587 1102 ft 102 kts 69°
2026-05-05 21:30 24.71614 -81.00862 1125 ft 101 kts 68°
2026-05-05 21:30 24.71907 -81.00160 1103 ft 102 kts 47°
2026-05-05 21:31 24.72530 -80.99937 1053 ft 99 kts 348°
2026-05-05 21:31 24.73148 -81.00248 1057 ft 94 kts 333°
2026-05-05 21:31 24.73463 -81.00846 1021 ft 98 kts 271°
2026-05-05 21:31 24.73490 -81.01617 840 ft 102 kts 278°
2026-05-05 21:32 24.73512 -81.02389 595 ft 99 kts 268°
2026-05-05 21:32 24.73378 -81.03099 383 ft 90 kts 253°
2026-05-05 21:32 24.73162 -81.03717 213 ft 82 kts 250°
2026-05-05 21:32 24.72953 -81.04257 87 ft 73 kts 250°
2026-05-05 21:33 24.72761 -81.04753 12 ft 66 kts 251°
2026-05-05 21:33 24.72588 -81.05168 10 ft 46 kts 244°
2026-05-05 21:33 24.72520 -81.05397 15 ft 27 kts 247°
2026-05-05 21:33 24.72449 -81.05580 15 ft 21 kts 248°
2026-05-05 21:34 24.72398 -81.05714 14 ft 20 kts 247°
2026-05-05 21:34 24.72348 -81.05798 12 ft 6 kts 195°
2026-05-05 21:34 24.72317 -81.05767 12 ft 11 kts 69°
2026-05-05 21:34 24.72352 -81.05677 14 ft 15 kts 67°
2026-05-05 21:35 24.72390 -81.05578 15 ft 13 kts 66°
2026-05-05 21:35 24.72424 -81.05488 14 ft 14 kts 68°
2026-05-05 21:35 24.72468 -81.05374 13 ft 18 kts 68°
2026-05-05 21:35 24.72512 -81.05257 12 ft 15 kts 66°
2026-05-05 21:36 24.72553 -81.05152 10 ft 14 kts 67°
2026-05-05 21:36 24.72592 -81.05051 9 ft 14 kts 68°
2026-05-05 21:36 24.72626 -81.04963 10 ft 12 kts 66°
2026-05-05 21:36 24.72664 -81.04866 10 ft 16 kts 67°
2026-05-05 21:37 24.72693 -81.04761 10 ft 10 kts 115°
2026-05-05 21:37 24.72673 -81.04717 10 ft 6 kts 70°
2026-05-05 21:37 24.72690 -81.04676 10 ft 6 kts 41°
2026-05-05 21:37 24.72707 -81.04673 11 ft 0 kts 356°